DW8501 Madrid ES current weather conditions

sailwx.info

Wind from 085 at 2 knots gusting 6

Air temperature 7.8° C
Dewpoint -7.5° C

Last reported at 2015-Jan-26 21:50 UTC.
Time now 2015-Jan-26 22:37 UTC

Location: N 40°27' W 003°35'.
View on Google Maps.

See reports from other nearby stations

  
Tides and Currents Weather Stations Pressure Air Temp Water Temp Dewpoint Dewpoint Depression Visibility Wind Speed Wind Dir Waves Ship Positions
date/time (UTC)wind fromknots sea level pressurealtimeterstation pressurevisibilityair tempwater tempwave heightnotes
2015-Jan-26 21:50 085 2 gusting 6 7.8
2015-Jan-26 21:45 082 3 gusting 6 7.8
2015-Jan-26 21:40 086 5 gusting 6 7.8
2015-Jan-26 21:35 097 4 gusting 6 7.8
2015-Jan-26 21:30 105 3 gusting 6 8.3
2015-Jan-26 21:25 109 5 gusting 6 8.3
2015-Jan-26 21:20 098 4 gusting 5 8.3
2015-Jan-26 21:15 065 2 gusting 8 8.3
2015-Jan-26 21:10 052 1 gusting 8 8.9
2015-Jan-26 21:05 052 6 gusting 11 8.9
2015-Jan-26 21:00 071 6 gusting 11 8.9
2015-Jan-26 20:55 075 6 gusting 9 8.9
2015-Jan-26 20:50 077 6 gusting 9 8.9
2015-Jan-26 20:45 085 6 gusting 6 8.9
2015-Jan-26 20:40 090 3 gusting 5 8.3
2015-Jan-26 20:35 090 2 gusting 6 8.9
2015-Jan-26 20:30 074 3 gusting 6 8.9
2015-Jan-26 20:25 067 3 gusting 7 8.9
2015-Jan-26 20:20 061 2 gusting 9 8.9
2015-Jan-26 20:15 049 3 gusting 9 8.9
2015-Jan-26 20:10 037 3 gusting 8 8.9
2015-Jan-26 20:05 040 6 gusting 9 9.4
2015-Jan-26 20:00 046 5 gusting 9 8.9
2015-Jan-26 19:55 053 4 gusting 8 8.9
2015-Jan-26 19:50 058 6 gusting 9 8.9
2015-Jan-26 19:45 046 6 gusting 12 9.4
2015-Jan-26 19:40 039 6 gusting 12 9.4
2015-Jan-26 19:35 034 7 gusting 11 9.4
2015-Jan-26 19:30 046 9 gusting 14 9.4
2015-Jan-26 19:25 053 6 gusting 14 9.4
2015-Jan-26 19:20 044 7 gusting 14 8.9
2015-Jan-26 19:15 044 9 gusting 15 8.9
2015-Jan-26 19:10 045 11 gusting 15 8.9
2015-Jan-26 19:05 048 13 gusting 17 9.4
2015-Jan-26 19:00 047 13 gusting 17 9.4
2015-Jan-26 18:55 050 12 gusting 14 9.4
2015-Jan-26 18:50 059 13 gusting 14 9.4
2015-Jan-26 18:45 059 9 gusting 13 10.0
2015-Jan-26 18:40 061 6 gusting 13 10.0
2015-Jan-26 18:35 059 7 gusting 10 10.6
2015-Jan-26 18:30 060 6 gusting 6 10.6
2015-Jan-26 18:25 051 1 gusting 2 10.0
2015-Jan-26 18:20 307 0 gusting 2 10.0
2015-Jan-26 18:15 10.6
2015-Jan-26 18:10 10.6
2015-Jan-26 18:05 059 1 gusting 4 10.6
2015-Jan-26 18:00 045 1 gusting 6 10.6
2015-Jan-26 17:55 026 2 gusting 6 10.6
2015-Jan-26 17:50 007 3 gusting 4 11.1
2015-Jan-26 17:45 359 2 gusting 3 11.1
2015-Jan-26 17:40 331 1 gusting 2 11.1
2015-Jan-26 17:35 311 0 gusting 2 11.1
2015-Jan-26 17:30 010 1 gusting 3 11.1
2015-Jan-26 17:25 11.1
2015-Jan-26 17:20 041 1 gusting 3 11.1
2015-Jan-26 17:15 068 1 gusting 3 11.1
2015-Jan-26 17:10 105 1 gusting 3 11.1
2015-Jan-26 17:05 101 2 gusting 4 11.7
2015-Jan-26 17:00 098 2 gusting 4 11.7
2015-Jan-26 16:55 097 3 gusting 4 11.7
2015-Jan-26 16:50 092 3 gusting 3 12.2
2015-Jan-26 16:45 099 2 gusting 3 12.2
2015-Jan-26 16:40 100 1 gusting 3 12.2
2015-Jan-26 16:35 104 2 gusting 3 12.8
2015-Jan-26 16:30 105 2 gusting 3 13.3
2015-Jan-26 16:25 086 0 gusting 3 13.3
2015-Jan-26 16:20 090 1 gusting 3 13.3
2015-Jan-26 16:15 054 1 gusting 3 13.9
2015-Jan-26 16:10 014 1 gusting 3 13.9
2015-Jan-26 16:05 014 0 gusting 2 13.9
2015-Jan-26 16:00 14.4
2015-Jan-26 15:55 034 0 gusting 2 14.4
2015-Jan-26 15:50 027 1 gusting 2 15.6
2015-Jan-26 15:45 041 1 gusting 2 16.1
2015-Jan-26 15:40 035 0 gusting 2 16.7
2015-Jan-26 15:35 171 1 gusting 3 16.7
2015-Jan-26 15:30 195 0 gusting 4 15.6
2015-Jan-26 15:25 187 2 gusting 4 15.6
2015-Jan-26 15:20 143 1 gusting 3 15.6
2015-Jan-26 15:15 139 1 gusting 2 14.4
2015-Jan-26 15:10 153 1 gusting 2 13.9
2015-Jan-26 15:05 145 0 gusting 2 13.3
2015-Jan-26 15:00 148 0 gusting 3 13.3
2015-Jan-26 14:55 182 1 gusting 3 13.3
2015-Jan-26 14:50 216 1 gusting 3 13.3
2015-Jan-26 14:45 234 1 gusting 3 13.3
2015-Jan-26 14:40 13.3
2015-Jan-26 14:35 175 3 gusting 3 13.3
2015-Jan-26 14:30 191 1 gusting 3 13.3
2015-Jan-26 14:25 235 0 gusting 4 12.8
2015-Jan-26 14:20 233 1 gusting 6 12.2
2015-Jan-26 14:15 221 3 gusting 6 12.2
2015-Jan-26 14:10 205 2 gusting 6 13.3
2015-Jan-26 14:05 213 3 gusting 6 13.3
2015-Jan-26 14:00 210 2 gusting 6 13.3
2015-Jan-26 13:55 13.9
2015-Jan-26 13:50 176 3 gusting 4 14.4
2015-Jan-26 13:45 14.4
2015-Jan-26 13:40 179 2 gusting 5 15.0
2015-Jan-26 13:35 152 1 gusting 5 16.1
2015-Jan-26 13:30 278 1 gusting 2 16.7
2015-Jan-26 13:25 235 0 gusting 4 15.6
2015-Jan-26 13:20 206 1 gusting 4 15.0
2015-Jan-26 13:15 179 1 gusting 3 15.0
2015-Jan-26 13:10 312 0 gusting 3 14.4
2015-Jan-26 13:05 287 1 gusting 3 13.9
2015-Jan-26 13:00 220 1 gusting 5 13.9
2015-Jan-26 12:55 204 1 gusting 5 15.6
2015-Jan-26 12:50 176 1 gusting 3 15.0
2015-Jan-26 12:45 178 1 gusting 5 14.4
2015-Jan-26 12:40 168 0 gusting 5 14.4
2015-Jan-26 12:35 160 3 gusting 4 14.4
2015-Jan-26 12:30 170 2 gusting 4 15.0
2015-Jan-26 12:25 177 1 gusting 4 14.4
2015-Jan-26 12:20 208 2 gusting 4 14.4
2015-Jan-26 12:15 207 1 gusting 3 14.4
2015-Jan-26 12:10 177 0 gusting 3 12.2
2015-Jan-26 12:05 184 0 gusting 4 11.7
2015-Jan-26 12:00 189 1 gusting 4 12.2
2015-Jan-26 11:55 182 1 gusting 5 12.8
2015-Jan-26 11:50 177 1 gusting 5 12.2
2015-Jan-26 11:45 184 2 gusting 4 12.2
2015-Jan-26 11:40 201 0 gusting 2 11.1
2015-Jan-26 11:35 233 1 gusting 2 11.1
2015-Jan-26 11:30 274 1 gusting 3 11.7
2015-Jan-26 11:25 271 0 gusting 3 11.7
2015-Jan-26 11:20 235 0 gusting 5 11.7
2015-Jan-26 11:15 228 2 gusting 6 11.7
2015-Jan-26 11:10 234 3 gusting 6 11.1
2015-Jan-26 11:05 207 2 gusting 3 11.7
2015-Jan-26 11:00 191 2 gusting 3 11.7
2015-Jan-26 10:55 207 2 gusting 4 11.7
2015-Jan-26 10:50 218 0 gusting 6 10.6
2015-Jan-26 10:45 220 3 gusting 6 10.0
2015-Jan-26 10:40 208 2 gusting 5 10.6
2015-Jan-26 10:35 200 1 gusting 3 11.7
2015-Jan-26 10:30 227 1 gusting 3 10.6
2015-Jan-26 10:25 197 0 gusting 3 10.0
2015-Jan-26 10:20 192 2 gusting 3 10.6
2015-Jan-26 10:15 207 1 gusting 3 10.0
2015-Jan-26 10:10 170 0 gusting 4 9.4
2015-Jan-26 10:05 166 2 gusting 4 8.3
2015-Jan-26 08:40 227 3 gusting 6 3.3
2015-Jan-26 08:35 225 5 gusting 6 3.3
2015-Jan-26 08:30 220 3 gusting 6 2.8
2015-Jan-26 08:25 223 3 gusting 7 2.2
2015-Jan-26 08:20 230 4 gusting 7 2.2
2015-Jan-26 08:15 230 3 gusting 9 1.7
2015-Jan-26 08:10 232 3 gusting 9 1.7
2015-Jan-26 08:05 236 6 gusting 7 1.1
2015-Jan-26 08:00 224 6 gusting 6 0.6
2015-Jan-26 07:55 207 5 gusting 6 -0.0
2015-Jan-26 07:50 207 2 gusting 8 -0.0
2015-Jan-26 07:45 217 1 gusting 8 -0.6
2015-Jan-26 07:40 209 2 gusting 9 -0.6
2015-Jan-26 07:35 196 5 gusting 9 -0.6
2015-Jan-26 07:30 196 6 gusting 9 -0.6
2015-Jan-26 07:25 193 6 gusting 9 -0.6
2015-Jan-26 07:20 195 5 gusting 6 -0.6
2015-Jan-26 07:15 193 4 gusting 7 -0.6
2015-Jan-26 07:10 184 3 gusting 7 -0.6
2015-Jan-26 07:05 192 2 gusting 8 -0.6
2015-Jan-26 07:00 198 2 gusting 8 -0.6
2015-Jan-26 06:55 197 3 gusting 6 -0.6
2015-Jan-26 06:50 192 2 gusting 4 -0.0
2015-Jan-26 06:45 173 3 gusting 4 -0.0
2015-Jan-26 05:50 -0.6
2015-Jan-26 05:45 197 1 gusting 1 -0.6
2015-Jan-26 05:40 201 0 gusting 1 -0.0
2015-Jan-26 05:35 -0.0
2015-Jan-26 05:30 -0.0
2015-Jan-26 05:25 161 1 gusting 1 -0.0
2015-Jan-26 05:20 -0.0
2015-Jan-26 05:15 0.6
2015-Jan-26 05:10 0.6
2015-Jan-26 05:05 0.6
2015-Jan-26 05:00 0.6
2015-Jan-26 04:55 220 0 gusting 1 1.1
2015-Jan-26 04:50 272 1 gusting 1 1.1
2015-Jan-26 04:45 1.1
2015-Jan-26 04:40 282 0 gusting 2 1.1
2015-Jan-26 04:35 291 0 gusting 3 0.6
2015-Jan-26 04:30 290 1 gusting 3 0.6
2015-Jan-26 04:25 279 1 gusting 2 0.6
2015-Jan-26 04:20 257 1 gusting 1 0.6
2015-Jan-26 04:15 212 0 gusting 1 0.6
2015-Jan-26 04:10 0.6
2015-Jan-26 04:05 227 1 gusting 1 0.6
2015-Jan-26 04:00 1.1
2015-Jan-26 03:55 1.1
2015-Jan-26 03:50 1.1
2015-Jan-26 03:45 1.1
2015-Jan-26 03:40 1.1
2015-Jan-26 03:35 262 0 gusting 2 1.1
2015-Jan-26 03:30 261 1 gusting 2 1.1
2015-Jan-26 03:25 256 1 gusting 1 1.1
2015-Jan-26 03:20 1.1
2015-Jan-26 03:15 319 0 gusting 3 1.1
2015-Jan-26 03:10 071 2 gusting 3 1.1
2015-Jan-26 03:05 091 1 gusting 2 1.7
2015-Jan-26 03:00 102 1 gusting 3 1.7
2015-Jan-26 02:55 108 1 gusting 3 2.2
2015-Jan-26 02:50 116 2 gusting 3 2.2
2015-Jan-26 02:45 123 1 gusting 3 2.2
2015-Jan-26 02:40 097 1 gusting 2 1.7
2015-Jan-26 02:35 037 1 gusting 1 2.2
2015-Jan-26 02:30 348 0 gusting 1 2.2
2015-Jan-26 02:25 333 1 gusting 1 2.2
2015-Jan-26 02:20 2.2
2015-Jan-26 02:15 2.2
2015-Jan-26 02:10 2.8
2015-Jan-26 02:05 2.8
2015-Jan-26 02:00 233 0 gusting 1 2.8
2015-Jan-26 01:55 225 1 gusting 1 2.8
2015-Jan-26 01:50 2.8
2015-Jan-26 01:45 2.8
2015-Jan-26 01:40 3.3
2015-Jan-26 01:35 3.3
2015-Jan-26 01:30 270 1 gusting 1 3.3
2015-Jan-26 01:25 3.3
2015-Jan-26 01:20 3.9
2015-Jan-26 01:15 148 1 gusting 2 3.9
2015-Jan-26 01:10 168 1 gusting 1 3.3
2015-Jan-26 01:05 186 1 gusting 2 3.9
2015-Jan-26 01:00 196 1 gusting 2 3.9
2015-Jan-26 00:55 196 0 gusting 2 3.9
2015-Jan-26 00:50 189 1 gusting 1 3.9
2015-Jan-26 00:45 174 0 gusting 3 4.4
2015-Jan-26 00:40 178 1 gusting 3 3.9
2015-Jan-26 00:35 182 1 gusting 5 3.9
2015-Jan-26 00:30 181 1 gusting 5 3.3
2015-Jan-26 00:25 181 3 gusting 4 3.3
2015-Jan-26 00:20 181 3 gusting 4 3.3
2015-Jan-26 00:15 185 3 gusting 4 3.3
2015-Jan-26 00:10 303 3 gusting 4 3.9
2015-Jan-26 00:05 288 1 gusting 4 3.9
2015-Jan-26 00:00 223 3 gusting 4 3.9
2015-Jan-25 23:55 206 2 gusting 4 3.9
2015-Jan-25 23:50 184 1 gusting 3 3.9
2015-Jan-25 23:45 191 1 gusting 3 3.9
2015-Jan-25 23:40 220 2 gusting 3 3.9
2015-Jan-25 23:35 250 1 gusting 2 3.9
2015-Jan-25 23:30 279 0 gusting 1 4.4
2015-Jan-25 23:25 4.4
2015-Jan-25 23:20 359 0 gusting 1 4.4
2015-Jan-25 23:15 4.4
2015-Jan-25 23:10 046 0 gusting 3 4.4
2015-Jan-25 23:05 045 1 gusting 3 5.0
2015-Jan-25 23:00 051 1 gusting 3 5.0
2015-Jan-25 22:55 043 3 gusting 3 5.0
2015-Jan-25 22:50 326 1 gusting 2 4.4
2015-Jan-25 22:45 313 1 gusting 3 4.4
2015-Jan-25 22:40 347 1 gusting 3 4.4
2015-Jan-25 22:35 344 3 gusting 3 4.4
2015-Jan-25 22:30 313 3 gusting 3 4.4
2015-Jan-25 22:25 289 1 gusting 6 4.4
2015-Jan-25 22:20 280 2 gusting 6 4.4
2015-Jan-25 22:15 288 4 gusting 6 4.4
2015-Jan-25 22:10 290 3 gusting 3 4.4
2015-Jan-25 22:05 267 0 gusting 2 5.6
2015-Jan-25 22:00 238 0 gusting 3 5.6
2015-Jan-25 21:55 118 0 gusting 4 5.6
2015-Jan-25 21:50 104 1 gusting 4 5.6
2015-Jan-25 21:45 090 1 gusting 6 6.1
2015-Jan-25 21:40 066 3 gusting 6 6.1
2015-Jan-25 21:35 055 5 gusting 6 6.7
2015-Jan-25 21:30 071 6 gusting 6 6.7
2015-Jan-25 21:25 074 5 gusting 6 6.1
2015-Jan-25 21:20 048 3 gusting 6 6.1
2015-Jan-25 21:15 036 6 gusting 6 6.1
2015-Jan-25 21:10 353 1 gusting 3 5.6
2015-Jan-25 21:05 6.1
2015-Jan-25 21:00 6.1
2015-Jan-25 20:55 070 3 gusting 4 6.1
2015-Jan-25 20:50 104 1 gusting 4 6.1
2015-Jan-25 20:45 091 1 gusting 2 6.7
2015-Jan-25 20:40 060 1 gusting 3 6.7
2015-Jan-25 20:35 112 0 gusting 3 6.7
2015-Jan-25 20:30 141 1 gusting 3 7.2
2015-Jan-25 20:25 073 1 gusting 9 7.2
2015-Jan-25 20:20 054 3 gusting 9 7.2
2015-Jan-25 20:15 071 7 gusting 9 7.2
2015-Jan-25 20:10 108 3 gusting 4 7.2
2015-Jan-25 20:05 125 3 gusting 6 7.2
2015-Jan-25 20:00 101 3 gusting 10 7.2
2015-Jan-25 19:55 069 4 gusting 11 7.2
2015-Jan-25 19:50 069 6 gusting 11 7.2
2015-Jan-25 19:45 096 6 gusting 11 7.2
2015-Jan-25 19:40 083 7 gusting 11 7.2
2015-Jan-25 19:35 061 8 gusting 12 7.2
2015-Jan-25 19:30 070 9 gusting 19 7.2
2015-Jan-25 19:25 074 6 gusting 19 7.2
2015-Jan-25 19:20 056 11 gusting 18 7.2
2015-Jan-25 19:15 040 13 gusting 19 7.2
2015-Jan-25 19:10 029 13 gusting 19 7.2
2015-Jan-25 19:05 034 13 gusting 18 7.8
2015-Jan-25 19:00 054 13 gusting 18 7.8
2015-Jan-25 18:55 060 13 gusting 15 7.8
2015-Jan-25 18:50 054 11 gusting 14 7.8
2015-Jan-25 18:45 049 10 gusting 13 7.8
2015-Jan-25 18:40 059 7 gusting 13 7.8
2015-Jan-25 18:35 056 7 gusting 13 7.8
2015-Jan-25 18:30 045 6 gusting 13 8.3
2015-Jan-25 18:25 044 4 gusting 6 8.3
2015-Jan-25 18:20 055 3 gusting 10 8.3
2015-Jan-25 18:15 065 5 gusting 10 8.3
2015-Jan-25 18:10 058 6 gusting 13 8.3
2015-Jan-25 18:05 051 6 gusting 14 8.9
2015-Jan-25 18:00 050 9 gusting 18 8.9
2015-Jan-25 17:55 054 9 gusting 18 8.9
2015-Jan-25 17:50 050 12 gusting 18 8.9
2015-Jan-25 17:45 038 13 gusting 19 9.4
2015-Jan-25 17:40 029 10 gusting 19 9.4
2015-Jan-25 17:35 031 14 gusting 18 9.4
2015-Jan-25 17:30 046 12 gusting 18 9.4
2015-Jan-25 17:25 052 10 gusting 18 9.4
2015-Jan-25 17:20 056 11 gusting 18 10.0
2015-Jan-25 17:15 053 13 gusting 18 10.0
2015-Jan-25 17:10 045 12 gusting 18 10.6
2015-Jan-25 17:05 045 13 gusting 18 10.6
2015-Jan-25 17:00 046 13 gusting 18 10.6
2015-Jan-25 16:55 045 13 gusting 18 11.1
2015-Jan-25 16:50 049 13 gusting 17 11.1
2015-Jan-25 16:45 052 13 gusting 17 11.7
2015-Jan-25 16:40 025 13 gusting 19 11.7
2015-Jan-25 16:35 024 13 gusting 19 11.7
2015-Jan-25 16:30 037 13 gusting 17 12.2
2015-Jan-25 16:25 037 13 gusting 14 12.2
2015-Jan-25 16:20 044 12 gusting 18 12.2
2015-Jan-25 16:15 041 10 gusting 18 12.2
2015-Jan-25 16:10 038 14 gusting 18 12.2
2015-Jan-25 16:05 038 7 gusting 16 12.8
2015-Jan-25 16:00 038 12 gusting 16 12.8
2015-Jan-25 15:55 036 10 gusting 16 12.8
2015-Jan-25 15:50 019 13 gusting 14 12.8
2015-Jan-25 15:45 018 6 gusting 11 13.3
2015-Jan-25 15:40 035 6 gusting 12 13.3
2015-Jan-25 15:35 042 8 gusting 12 13.3
2015-Jan-25 15:30 049 6 gusting 9 13.9
2015-Jan-25 15:25 048 5 gusting 9 13.9
2015-Jan-25 15:20 058 6 gusting 13 13.3
2015-Jan-25 15:15 046 6 gusting 13 13.3
2015-Jan-25 15:10 016 9 gusting 13 13.3
2015-Jan-25 15:05 018 4 gusting 11 13.3
2015-Jan-25 15:00 043 4 gusting 11 13.3
2015-Jan-25 14:55 053 9 gusting 14 13.3
2015-Jan-25 14:50 054 6 gusting 14 13.3
2015-Jan-25 14:45 067 9 gusting 14 12.8
2015-Jan-25 14:40 073 8 gusting 13 13.3
2015-Jan-25 14:35 048 9 gusting 16 12.8
2015-Jan-25 14:30 049 9 gusting 16 13.3
2015-Jan-25 14:25 052 7 gusting 13 12.8
2015-Jan-25 14:20 054 9 gusting 13 13.3
2015-Jan-25 14:15 048 6 gusting 12 13.3
2015-Jan-25 14:10 037 6 gusting 12 13.3
2015-Jan-25 14:05 046 5 gusting 10 13.9
2015-Jan-25 14:00 039 6 gusting 13 13.3
2015-Jan-25 13:55 047 9 gusting 13 13.9
2015-Jan-25 13:50 076 3 gusting 6 15.0
2015-Jan-25 13:45 087 1 gusting 6 15.0
2015-Jan-25 13:40 084 3 gusting 6 15.0
2015-Jan-25 13:35 076 3 gusting 6 15.0
2015-Jan-25 13:30 090 1 gusting 6 15.0
2015-Jan-25 13:25 123 1 gusting 7 14.4
2015-Jan-25 13:20 118 2 gusting 7 13.9
2015-Jan-25 13:15 108 2 gusting 5 15.0
2015-Jan-25 13:10 109 1 gusting 5 15.0
2015-Jan-25 13:05 120 3 gusting 6 13.3
2015-Jan-25 13:00 144 3 gusting 6 13.3
2015-Jan-25 12:55 184 4 gusting 6 14.4
2015-Jan-25 12:50 159 1 gusting 6 13.9
2015-Jan-25 12:45 157 1 gusting 6 13.3
2015-Jan-25 12:40 190 3 gusting 5 14.4
2015-Jan-25 12:35 186 0 gusting 5 13.3
2015-Jan-25 12:30 179 2 gusting 5 13.3
2015-Jan-25 12:25 162 3 gusting 5 12.8
2015-Jan-25 12:20 138 3 gusting 4 12.8
2015-Jan-25 12:15 155 1 gusting 6 12.8
2015-Jan-25 12:10 12.2
2015-Jan-25 12:05 155 1 gusting 7 12.2
2015-Jan-25 12:00 141 4 gusting 7 11.7
2015-Jan-25 11:55 128 2 gusting 9 11.1
2015-Jan-25 11:50 131 4 gusting 9 11.1
2015-Jan-25 11:45 129 3 gusting 8 11.1
2015-Jan-25 11:40 128 6 gusting 8 10.6
2015-Jan-25 11:35 130 3 gusting 7 10.6
2015-Jan-25 11:30 119 3 gusting 8 10.6
2015-Jan-25 11:25 106 5 gusting 8 10.6
2015-Jan-25 11:20 091 2 gusting 13 10.6
2015-Jan-25 11:15 065 1 gusting 17 10.6
2015-Jan-25 11:10 048 6 gusting 17 10.6
2015-Jan-25 11:05 055 14 gusting 19 10.0
2015-Jan-25 11:00 071 14 gusting 19 10.0
2015-Jan-25 10:55 075 13 gusting 21 10.0
2015-Jan-25 10:50 071 11 gusting 21 9.4
2015-Jan-25 10:45 056 10 gusting 13 10.0
2015-Jan-25 10:40 045 12 gusting 13 9.4
2015-Jan-25 10:35 045 10 gusting 13 10.0
2015-Jan-25 10:30 11.7
2015-Jan-25 10:25 11.7
2015-Jan-25 10:20 11.7
2015-Jan-25 10:15 11.7
2015-Jan-25 10:10 11.7
2015-Jan-25 10:05 240 0 gusting 3 10.6
2015-Jan-25 10:00 10.0
2015-Jan-25 09:55 210 1 gusting 3 9.4
2015-Jan-25 09:50 196 1 gusting 4 8.9
2015-Jan-25 09:45 193 1 gusting 5 9.4
2015-Jan-25 09:40 175 2 gusting 5 10.0
2015-Jan-25 09:35 163 1 gusting 3 10.0
2015-Jan-25 09:30 176 0 gusting 3 9.4
2015-Jan-25 09:25 188 1 gusting 3 8.9
2015-Jan-25 09:20 7.2
2015-Jan-25 09:15 229 3 gusting 5 6.7
2015-Jan-25 09:10 225 3 gusting 5 7.8
2015-Jan-25 09:05 215 0 gusting 3 9.4
2015-Jan-25 09:00 197 0 gusting 3 9.4
2015-Jan-25 08:55 9.4
2015-Jan-25 08:50 239 0 gusting 2 8.9
2015-Jan-25 08:45 208 0 gusting 3 7.2
2015-Jan-25 08:40 199 1 gusting 3 6.7
2015-Jan-25 08:35 192 1 gusting 4 6.1
2015-Jan-25 08:30 181 1 gusting 5 5.6
2015-Jan-25 08:25 176 3 gusting 5 6.7
2015-Jan-25 08:20 125 1 gusting 2 7.8
2015-Jan-25 08:15 084 0 gusting 2 7.2
2015-Jan-25 08:10 044 1 gusting 3 7.2
2015-Jan-25 08:05 010 1 gusting 3 6.1
2015-Jan-25 08:00 337 1 gusting 3 5.6
2015-Jan-25 07:55 296 1 gusting 3 5.6
2015-Jan-25 07:50 252 1 gusting 3 5.0
2015-Jan-25 07:45 246 1 gusting 2 4.4
2015-Jan-25 07:40 358 0 gusting 3 4.4
2015-Jan-25 07:35 007 0 gusting 4 4.4
2015-Jan-25 07:30 017 2 gusting 6 4.4
2015-Jan-25 07:25 032 3 gusting 6 4.4
2015-Jan-25 07:20 023 3 gusting 6 4.4
2015-Jan-25 07:15 357 3 gusting 6 3.9
2015-Jan-25 07:10 353 3 gusting 6 3.9
2015-Jan-25 07:05 005 2 gusting 6 4.4
2015-Jan-25 07:00 359 2 gusting 8 4.4
2015-Jan-25 06:55 358 3 gusting 10 4.4
2015-Jan-25 06:50 001 5 gusting 11 4.4
2015-Jan-25 06:45 007 4 gusting 12 4.4
2015-Jan-25 06:40 009 6 gusting 12 4.4
2015-Jan-25 06:35 002 9 gusting 13 4.4
2015-Jan-25 06:30 006 5 gusting 13 4.4
2015-Jan-25 06:25 004 5 gusting 8 4.4
2015-Jan-25 06:20 356 5 gusting 6 4.4
2015-Jan-25 06:15 306 1 gusting 6 4.4
2015-Jan-25 06:10 280 1 gusting 4 4.4
2015-Jan-25 06:05 286 1 gusting 5 4.4
2015-Jan-25 06:00 271 1 gusting 5 4.4
2015-Jan-25 05:55 268 3 gusting 3 3.9
2015-Jan-25 05:50 261 1 gusting 3 3.9
2015-Jan-25 05:45 260 1 gusting 2 3.9
2015-Jan-25 05:40 239 1 gusting 3 4.4
2015-Jan-25 05:35 239 1 gusting 3 4.4
2015-Jan-25 05:30 265 1 gusting 3 4.4
2015-Jan-25 05:25 260 2 gusting 3 4.4
2015-Jan-25 05:20 234 2 gusting 4 4.4
2015-Jan-25 05:15 249 2 gusting 5 5.0
2015-Jan-25 05:10 321 3 gusting 5 5.0
2015-Jan-25 05:05 346 1 gusting 4 5.0
2015-Jan-25 05:00 325 1 gusting 4 5.0
2015-Jan-25 04:55 311 2 gusting 3 5.0
2015-Jan-25 04:50 296 1 gusting 3 5.0
2015-Jan-25 04:45 289 1 gusting 3 5.0
2015-Jan-25 04:40 283 1 gusting 4 5.0
2015-Jan-25 04:35 285 1 gusting 4 5.0
2015-Jan-25 04:30 330 3 gusting 4 5.6
2015-Jan-25 04:25 030 1 gusting 4 5.6
2015-Jan-25 04:20 020 0 gusting 6 5.6
2015-Jan-25 04:15 018 3 gusting 6 5.6
2015-Jan-25 04:10 026 0 gusting 5 5.6
2015-Jan-25 04:05 015 3 gusting 9 5.6
2015-Jan-25 04:00 354 2 gusting 9 5.6
2015-Jan-25 03:55 354 3 gusting 7 5.6
2015-Jan-25 03:50 357 5 gusting 6 5.6
2015-Jan-25 03:45 349 4 gusting 6 5.6
2015-Jan-25 03:40 347 3 gusting 6 5.6
2015-Jan-25 03:35 345 3 gusting 6 5.6
2015-Jan-25 03:30 350 3 gusting 6 5.6
2015-Jan-25 03:25 321 3 gusting 6 5.6
2015-Jan-25 03:20 239 1 gusting 4 5.0
2015-Jan-25 03:15 167 1 gusting 3 5.0
2015-Jan-25 03:10 107 1 gusting 3 5.6
2015-Jan-25 03:05 083 1 gusting 3 6.1
2015-Jan-25 03:00 006 1 gusting 3 6.1
2015-Jan-25 02:55 028 0 gusting 12 6.7
2015-Jan-25 02:50 042 1 gusting 16 6.7
2015-Jan-25 02:45 042 7 gusting 16 6.7
2015-Jan-25 02:40 040 10 gusting 14 6.7
2015-Jan-25 02:35 043 13 gusting 14 7.2
2015-Jan-25 02:30 044 13 gusting 18 7.2
2015-Jan-25 02:25 046 12 gusting 18 7.2
2015-Jan-25 02:20 049 13 gusting 18 7.2
2015-Jan-25 02:15 047 8 gusting 13 7.2
2015-Jan-25 02:10 042 9 gusting 13 7.2
2015-Jan-25 02:05 041 8 gusting 14 7.2
2015-Jan-25 02:00 042 9 gusting 14 7.2
2015-Jan-25 01:55 040 9 gusting 13 7.2
2015-Jan-25 01:50 044 6 gusting 14 7.2
2015-Jan-25 01:45 042 9 gusting 14 7.2
2015-Jan-25 01:40 038 13 gusting 15 7.2
2015-Jan-25 01:35 048 9 gusting 16 7.2
2015-Jan-25 01:30 049 10 gusting 21 7.8
2015-Jan-25 01:25 042 9 gusting 21 7.8
2015-Jan-25 01:20 042 15 gusting 21 7.8
2015-Jan-25 01:15 038 13 gusting 16 7.8
2015-Jan-25 01:10 230 12 gusting 14 7.8
2015-Jan-25 01:05 244 9 gusting 18 7.8
2015-Jan-25 01:00 014 9 gusting 18 7.8
2015-Jan-25 00:55 009 6 gusting 14 7.2
2015-Jan-25 00:50 012 6 gusting 13 7.2
2015-Jan-25 00:45 037 2 gusting 18 7.8
2015-Jan-25 00:40 040 12 gusting 18 7.8
2015-Jan-25 00:35 038 12 gusting 18 7.8
2015-Jan-25 00:30 039 12 gusting 19 7.8
2015-Jan-25 00:25 038 14 gusting 19 7.8
2015-Jan-25 00:20 039 14 gusting 24 8.3
2015-Jan-25 00:15 044 14 gusting 24 8.3
2015-Jan-25 00:10 047 15 gusting 23 8.3
2015-Jan-25 00:05 041 14 gusting 23 8.3
2015-Jan-25 00:00 040 18 gusting 23 8.3
2015-Jan-24 23:55 044 19 gusting 25 8.3
2015-Jan-24 23:50 042 19 gusting 25 8.3
2015-Jan-24 23:45 045 16 gusting 21 8.3
2015-Jan-24 23:40 049 14 gusting 21 8.3
2015-Jan-24 23:35 050 18 gusting 23 8.3
2015-Jan-24 23:30 045 15 gusting 23 7.8
2015-Jan-24 23:25 038 13 gusting 19 7.8
2015-Jan-24 23:20 050 13 gusting 17 7.8
2015-Jan-24 23:15 058 9 gusting 16 7.8
2015-Jan-24 23:10 051 9 gusting 16 7.8
2015-Jan-24 23:05 045 13 gusting 16 8.3
2015-Jan-24 23:00 044 13 gusting 16 8.3
2015-Jan-24 22:55 040 13 gusting 14 7.8
2015-Jan-24 22:50 040 9 gusting 18 8.3
2015-Jan-24 22:45 039 9 gusting 18 8.3
2015-Jan-24 22:40 039 13 gusting 19 8.3
2015-Jan-24 22:35 036 13 gusting 19 8.3
2015-Jan-24 22:30 037 12 gusting 19 8.3
2015-Jan-24 22:25 043 10 gusting 25 8.3
2015-Jan-24 22:20 044 14 gusting 27 8.9
2015-Jan-24 22:15 044 18 gusting 27 8.9
2015-Jan-24 22:10 039 17 gusting 27 8.9
2015-Jan-24 22:05 041 18 gusting 27 8.9
2015-Jan-24 22:00 035 21 gusting 27 8.9